Погода в Ганьоа

Кот-д’Ивуар     6°07′43″N   5°56′50″W
темп.,
°C
ветер,
м/с
пор.,
м/с
влажн.,
%
обл.,
%
осадки,
мм/ч
давл.,
гПа
погр.,
м
1 марта, пн
пн100:00+24ююз1792100 1.7 1010317
03:00+23юз169581 0.1 1008256
06:00+22ююз149761 0.1 1008207
09:00+26зюз248178 0.0 1010478
12:00+34юз114743 0.0 10091510
15:00+34ю114967 1.9 10061107
18:00+30ююв256241 2.0 1007272
21:00+25ююз1592100 2.8 1010182
2 марта, вт
вт200:00+24ю279597 3.0 1010363
03:00+23юз279778 0.0 1008366
06:00+22юз169862 0.0 1008293
09:00+26юз248178 0.0 1011554
12:00+33ююз214881 0.0 10101331
15:00+36вюв233820 0.0 10072294
18:00+30ююв366127 0.0 1007715
21:00+26ююз278344 0.3 1010560
3 марта, ср
ср300:00+24ююз288565 0.3 1010419
03:00+23юз169059 0.0 1008379
06:00+22зюз159570 0.0 1010275
09:00+27юз247191 0.0 1011680
12:00+33юз234896 0.0 10111363
15:00+33ююз214663 0.0 10071923
18:00+28ююз277373 0.7 1008376
21:00+25ююз169361 1.9 1010225
4 марта, чт
чт400:00+24ююз299459 1.9 1010402
03:00+23юз299645 0.0 1008497
06:00+23зюз189765 0.0 1009523
09:00+26зюз268195 0.0 1011700
12:00+31юз345789 0.0 10101156
15:00+34юз2348100 0.0 10061610
18:00+31ююз255995 0.0 1006497
21:00+25ююз178423 0.9 1009338
5 марта, пт
пт500:00+24ююз179344 0.9 1010426
03:00+24юз2893100 0.0 1008477
06:00+23юз2893100 0.0 1008565
09:00+25юз3683100 0.1 1011659
12:00+29зюз2566100 0.1 10101062
15:00+32зюз245487 0.0 10061408
18:00+30ю126474 0.6 1007105
21:00+24ююз2994100 2.3 1010430